Portada
METAR-TAF:

METAR-TAF

Aeropuertos :

Aeropuerto Alfonso López Pumarejo

Valledupar, Colombia

latitud: 10-26N, longitud: 073-15W, altitud: 138 m

Observación

El informe se hizo hace 1 hora y 7 minutos, a las 19:00 UTC
Viento 16 kt del este-noreste
Temperatura 34°C
Humedad 44%
Presión 1011 hPa
Visibilidad 10 km o más
Escasas nubes a una altura de 2000 ft

METAR: SKVP 181900Z 07016KT 9999 FEW020 34/20 A2986

Hora: 15:07 (20:07 UTC)


TAF: falta

Observaciones y pronósticos meteorológicos de más de 4000 aeropuertos (mensajes METAR y TAF).

Los puntos amarillos y rojos representan las estaciones disponibles.

Ponga el ratón en el punto deseado para ver el nombre de la estación.

Haga clic para ver las observaciones y los pronósticos meteorológicos.

Para cambiar el mapa : haga clic en los botones verdes con una cruz de color negro para hacer un zoom, en el botón verde con un guión para alejar o en las flechas verdes para mapas adyacentes.


METAR-TAF: